Flag for Ukraine Weather past 2 weeks in Kryvyi Rih, Ukraine

Now
37 °F

Overcast.


Feels Like: 30 °F
Forecast: 39 / 47 °F
Wind: 10 mph from South

Location: Krivyy Rih / Dnipropetrovs'k

Current Time: Mar 2, 2015 at 5:30:39 PM

Latest Report: Mar 2, 2015 at 5:00 PM


Visibility: N/A

Pressure: 29.95 "Hg

Humidity: 81%

Dew point: 32 °F

Location of Kryvyi RihLocation

Historic Weather in Kryvyi Rih — Graph

°F

Kryvyi Rih temperature yesterday

Maximum temperature yesterday: 37 °F (at 1:00 PM)
Minimum temperature yesterday: 32 °F (at 6:00 AM)
Average temperature yesterday: 35 °F

Past Weeks' High & Low Weather Summary

 TemperatureHumidityPressure
High57 °F (Feb 27, 1:00 PM)100% (Feb 26, 5:00 PM)30.63 "Hg (Feb 26, 5:00 PM)
Low9 °F (Feb 17, 3:00 AM)29% (Feb 18, 3:00 PM)29.89 "Hg (Feb 24, 3:00 PM)
Average32 °F75%30.16 "Hg
* Reported Feb 15 4:00 PM — Mar 2 4:30 PM, Kryvyi Rih, Weather by CustomWeather, © 2015

Note: Actual official high and low records may vary slightly from our data, if they occured in-between our weather recording intervals... More about our weather records

Advertising

Kryvyi Rih weather history for previous 24 hours

 ConditionsComfort  
Time TempWeatherWind HumidityBarometerVisibility
4:30 PM
Mon, Mar 2
37 °FOvercast.13 mph75%29.95 "HgN/A
4:00 PM37 °FOvercast.10 mph75%29.98 "HgN/A
3:30 PM37 °FOvercast.10 mph75%29.98 "HgN/A
3:00 PM37 °FOvercast.10 mph75%29.98 "HgN/A
2:30 PM37 °FOvercast.10 mph75%29.98 "HgN/A
2:00 PM37 °FOvercast.10 mph75%29.98 "HgN/A
1:30 PM36 °FOvercast.13 mph81%29.98 "HgN/A
1:00 PM36 °FOvercast.10 mph81%30.01 "HgN/A
12:30 PM36 °FOvercast.10 mph81%30.01 "HgN/A
12:00 PM36 °FOvercast.10 mph81%30.01 "HgN/A
11:30 AM36 °FOvercast.10 mph81%30.01 "HgN/A
11:00 AM36 °FOvercast.8 mph81%30.01 "HgN/A
10:30 AM36 °FOvercast.8 mph87%30.01 "HgN/A
10:00 AM36 °FOvercast.8 mph87%30.04 "HgN/A
9:30 AM34 °FFog.6 mph93%30.04 "Hg3 mi
9:00 AM34 °FFog.6 mph93%30.04 "Hg3 mi
8:30 AM34 °FFog.3 mph93%30.04 "Hg2 mi
8:00 AM34 °FFog.1 mph93%30.04 "Hg2 mi
7:30 AM34 °FFog.1 mph93%30.04 "Hg2 mi
7:00 AM34 °FFog.3 mph93%30.04 "Hg2 mi
6:30 AM34 °FFog.1 mph93%30.04 "Hg2 mi
6:00 AM34 °FFog.3 mph93%30.04 "Hg3 mi
5:30 AM34 °FFog.3 mph93%30.01 "Hg3 mi
5:00 AM34 °FFog.3 mph93%30.04 "Hg2 mi
4:30 AM34 °FFog.No wind93%30.04 "Hg3 mi
4:00 AM34 °FFog.No wind93%30.04 "Hg3 mi
3:30 AM34 °FFog.No wind93%30.04 "Hg2 mi
3:00 AM34 °FFog.No wind93%30.04 "Hg3 mi
2:30 AM34 °FFog.No wind93%30.04 "Hg3 mi
2:00 AM34 °FFog.3 mph93%30.04 "Hg2 mi
1:30 AM34 °FFog.3 mph93%30.07 "Hg3 mi
1:00 AM34 °FFog.1 mph93%30.07 "Hg2 mi
12:30 AM34 °FFog.No wind93%30.07 "Hg2 mi
12:00 AM34 °FFog.3 mph93%30.07 "Hg3 mi
11:30 PM
Sun, Mar 1
36 °FLow clouds.3 mph87%30.07 "HgN/A
11:00 PM36 °FLow clouds.3 mph87%30.07 "HgN/A
10:30 PM36 °FOvercast.1 mph93%30.07 "HgN/A
9:30 PM36 °FOvercast.No wind93%30.07 "HgN/A
9:00 PM36 °FLow clouds.No wind93%30.07 "HgN/A
8:30 PM36 °FOvercast.No wind93%30.07 "HgN/A
8:00 PM36 °FOvercast.No wind93%30.07 "HgN/A
7:30 PM36 °FOvercast.No wind93%30.07 "HgN/A
7:00 PM36 °FOvercast.No wind93%30.07 "HgN/A
6:30 PM36 °FOvercast.No wind93%30.07 "HgN/A
6:00 PM36 °FOvercast.No wind93%30.07 "HgN/A
5:30 PM37 °FOvercast.No wind87%30.07 "HgN/A
5:00 PM37 °FOvercast.1 mph87%30.07 "HgN/A
Weather by CustomWeather, © 2015

See weather overviewHow to use our weather pages